Location: *
(43.9156°S, 102.7912°E)
Time: 06:03:59
(UTC+00:00)

Daily predictions for brighter satellites

Satellite Brightness Start Highest point End
(mag) Time Altitude Azimuth Time Altitude Azimuth Time Altitude Azimuth
Cosmos 2227 Rocket 2.7 13:06:36 10° SSW 13:12:06 46° ESE 13:17:32 10° NE
Cosmos 2263 Rocket 3.3 13:11:25 10° S 13:16:24 31° SE 13:21:20 10° ENE
Resurs 01 Rocket 1.8 13:12:27 10° S 13:16:56 80° WSW 13:21:20 10° NNW
Tiangong 0.5 13:18:11 10° NW 13:19:19 11° NNW 13:20:26 10° N
CZ-4B R/B 4.0 13:19:25 10° SSE 13:23:00 46° E 13:26:39 10° N
Cosmos 1602 3.7 13:27:33 10° S 13:30:20 37° ESE 13:32:59 11° NNE
Meteor 1-31 Rocket 2.6 13:27:14 10° SSE 13:30:49 59° E 13:34:22 10° N
Cosmos 1486 Rocket 4.0 13:25:41 10° NNW 13:30:52 76° ENE 13:36:08 10° SSE
Cosmos 2016 Rocket 4.3 13:30:21 10° NNE 13:36:26 50° E 13:42:37 10° SSE
SJ-6B 3.5 13:32:47 10° S 13:36:30 54° WSW 13:40:09 10° NNW
Cosmos 1812 1.8 13:35:05 10° N 13:37:42 80° W 13:40:23 10° S
Cosmos 44 Rocket 3.2 13:33:55 10° SW 13:38:35 83° NW 13:43:01 11° NNE
Cosmos 1354 Rocket 4.4 13:37:45 10° N 13:42:47 44° ENE 13:47:52 10° SSE
Cosmos 2219 4.2 13:39:08 10° S 13:44:14 33° SE 13:48:42 13° ENE
Cosmos 807 4.3 13:40:46 10° S 13:44:24 72° E 13:47:20 11° NNE
Cosmos 1725 Rocket 4.1 13:38:55 10° N 13:45:08 63° E 13:51:26 10° SSE
SPOT 5 2.7 13:41:43 10° SSE 13:46:18 61° E 13:50:38 10° N
USA 59 Rocket 2.0 13:39:26 10° NNW 13:47:58 68° ENE 13:58:10 10° SE
Cosmos 1862 4.0 13:46:15 10° S 13:49:38 32° ESE 13:51:56 17° NE
Cosmos 1459 Rocket 4.2 13:46:34 10° N 13:52:55 80° W 13:59:25 10° S
Cosmos 1777 Rocket 4.1 13:48:09 10° NNW 13:53:27 86° WSW 13:58:49 10° SSE
Cosmos 1980 Rocket 2.2 13:48:23 10° N 13:54:00 63° ENE 13:59:41 10° SSE
Cosmos 990 Rocket 4.2 13:50:15 10° N 13:55:13 50° ENE 14:00:13 10° SSE
USA 186 3.0 13:55:53 10° SE 13:57:00 15° E 13:57:00 15° E
COSMOS 2455 2.9 13:51:42 10° NNW 13:57:35 60° ENE 14:03:32 10° SE
Cosmos 2100 Rocket 4.4 13:52:14 10° NNW 13:58:23 66° W 14:04:36 10° S
Cosmos 2151 Rocket 4.4 13:55:52 16° NNE 13:58:56 33° E 14:03:01 10° SSE
Cosmos 2297 Rocket 3.6 13:53:52 10° SW 13:58:57 34° WNW 14:03:59 10° NNW
Cosmos 2333 Rocket 4.1 14:00:05 10° E 14:00:20 11° E 14:01:24 10° E
Cosmos 2233 Rocket 4.2 13:54:49 10° NNE 14:00:59 57° E 14:07:14 10° SSE
Cosmos 1400 Rocket 3.7 13:57:59 10° NNW 14:01:38 47° WSW 14:05:18 10° S
CZ-4 R/B 1.2 13:58:09 10° SSE 14:02:05 87° WSW 14:05:54 10° NNW
Okean-O 4.0 14:00:13 10° SE 14:03:41 22° E 14:05:06 19° ENE
Cosmos 1346 Rocket 2.5 14:02:54 10° S 14:06:40 82° E 14:09:19 18° NNE
Cosmos 2369 4.0 14:03:37 10° N 14:08:59 45° ENE 14:14:25 10° SE
CBERS 1 LM4 rocket 4.3 14:08:32 10° SSE 14:13:21 70° ENE 14:18:12 10° N
Cosmos 1697 Rocket 4.0 14:08:27 10° NW 14:13:51 44° WSW 14:19:17 10° SSE
ADEOS 3.6 14:09:56 10° SSE 14:15:11 59° ENE 14:20:06 11° N
Cosmos 1315 Rocket 3.8 14:14:47 24° ENE 14:15:44 26° E 14:19:03 10° SE
Cosmos 1898 Rocket 4.4 14:18:57 23° NE 14:20:55 29° E 14:25:23 10° SE
Cosmos 2058 2.8 14:17:28 10° S 14:21:33 86° W 14:24:08 21° N
Helios 1A 3.4 14:19:15 15° N 14:22:26 56° W 14:26:25 10° SSW
SL-8 R/B 3.7 14:18:20 10° WSW 14:23:13 85° SSE 14:26:11 23° ENE
PAYLOAD B 4.2 14:18:14 10° SSE 14:23:50 81° ENE 14:29:23 10° NNW
Cosmos 2360 Rocket 4.1 14:25:58 11° E 14:25:58 11° E 14:27:20 10° ESE
NOSS 3-1 (C) 4.3 14:16:02 10° NNW 14:25:33 66° ENE 14:33:57 10° SE
Cosmos 2082 4.0 14:22:45 10° SSW 14:28:22 56° ESE 14:31:31 25° NE
Cosmos 2084 3.9 14:26:40 10° SSW 14:30:47 49° SE 14:32:42 28° ENE
Okean 2 Rocket 3.2 14:30:40 27° NNE 14:32:53 57° E 14:37:15 10° SSE
ERS-1 Rocket 2.9 14:27:53 10° SSE 14:33:00 81° ENE 14:37:23 14° N
Okean O Rocket 1.9 14:28:59 10° SSE 14:33:18 48° E 14:35:03 30° NNE
Cosmos 1844 Rocket 4.0 14:29:04 10° S 14:33:51 27° SE 14:36:55 17° E
SL-16 R/B 3.0 14:36:11 27° NE 14:37:37 30° ENE 14:42:33 10° SE
SL-4 R/B 3.9 14:35:04 10° WSW 14:37:51 23° S 14:40:33 10° SE
Cosmos 2061 Rocket 4.0 14:32:34 10° N 14:38:54 87° W 14:45:15 10° S
Cosmos 2237 4.3 14:35:56 14° N 14:40:51 59° ENE 14:46:32 10° SSE
Aureole 1 Rocket 2.3 14:43:17 51° E 14:43:17 51° E 14:46:01 10° SSE
USA 234 4.2 14:38:35 10° SE 14:44:53 49° SSW 14:51:10 10° W
Cosmos 1538 Rocket 4.2 14:40:30 10° SSW 14:45:40 59° ESE 14:47:53 33° NE
CZ-2C R/B 2.8 14:42:47 10° SSE 14:45:32 41° E 14:45:32 41° E
SL-24 DEB 4.2 14:43:19 25° N 14:45:53 77° W 14:50:28 10° S
Aureole 3 Rocket 2.3 14:46:37 54° ENE 14:46:43 54° E 14:50:01 10° SSE
Terra 1.8 14:42:51 10° S 14:47:39 81° WSW 14:51:17 17° NNW
SME Rocket 3.0 14:52:16 41° NNE 14:53:38 90° SE 14:58:25 10° SSW
CZ-4B R/B 3.5 14:49:00 10° S 14:54:42 70° WSW 15:00:21 10° NNW
Cosmos 2227 Rocket 3.8 14:51:06 10° SW 14:55:51 28° WNW 15:00:04 12° NNW
Cosmos 1356 Rocket 3.2 14:57:41 47° N 14:58:46 75° E 15:02:54 10° SSE
Meteor 2-3 Rocket 3.7 14:53:11 10° S 14:58:56 73° ESE 15:01:20 36° NNE
CZ-4B R/B 3.7 14:55:22 10° SSE 15:00:04 47° E 15:01:01 41° NE
Cosmos 2263 Rocket 3.0 14:55:08 10° SW 15:00:25 43° WNW 15:03:31 23° NNW
Cosmos 1937 Rocket 3.6 15:05:24 40° NNE 15:06:58 55° ENE 15:12:10 10° SSE
USA 245 3.6 15:13:15 10° SSE 15:17:31 79° ENE 15:18:56 46° N
CZ-2C R/B 3.8 15:17:59 48° N 15:19:19 81° WNW 15:24:08 10° SSW
Cosmos 923 Rocket 4.4 15:14:11 10° SSW 15:19:25 52° ESE 15:20:50 41° ENE
Ariane Rocket 3.3 15:15:50 10° SSE 15:20:46 46° E 15:21:18 45° ENE
Cosmos 2322 Rocket 2.7 15:21:19 38° ENE 15:21:36 39° ENE 15:26:49 10° SE
Cosmos 1072 Rocket 4.4 15:19:06 38° N 15:21:37 75° E 15:27:48 10° SSE
Helios 1B 4.4 15:21:02 63° NNE 15:21:43 86° ESE 15:26:04 10° SSW
Okean 1 Rocket 3.8 15:20:46 26° NW 15:22:54 49° WSW 15:27:12 10° S
Cosmos 2278 3.7 15:22:23 44° NNE 15:23:59 61° ENE 15:29:40 10° SSE
USA 186 4.3 15:26:29 10° SW 15:27:05 11° WSW 15:27:33 10° W
Cosmos 2227 4.3 15:21:18 10° SSW 15:27:09 73° ESE 15:28:51 47° NE
Cosmos 1455 Rocket 2.9 15:27:05 64° N 15:27:45 89° W 15:32:12 10° S
Cosmos 2219 4.1 15:23:09 10° SW 15:28:26 41° WNW 15:30:35 29° NNW
PSLV R/B 3.8 15:29:47 55° ENE 15:30:28 62° ESE 15:35:10 10° S
Cosmos 1680 Rocket 3.9 15:28:49 10° S 15:33:57 50° ESE 15:35:01 43° ENE
Spot 2 Rocket 4.1 15:31:31 10° S 15:36:30 54° WSW 15:39:13 25° NW
Cosmos 858 Rocket 4.4 15:36:06 56° NNE 15:37:05 71° ENE 15:42:22 10° SSE
Cosmos 1892 Rocket 3.5 15:32:56 10° SSW 15:37:28 77° W 15:38:00 66° NNW
USA 59 Rocket 3.0 15:29:07 10° WNW 15:38:03 48° SW 15:47:59 10° SE
Cosmos 2228 3.0 15:38:20 62° E 15:38:20 62° E 15:42:25 10° SSE
Cosmos 1980 Rocket 4.5 15:33:53 10° WNW 15:38:27 24° SW 15:43:03 10° S
DELTA 2 DEB (DPAF) 4.4 15:39:09 46° SE 15:39:09 46° SE 15:42:28 10° S
Okean-O 3.9 15:35:57 10° S 15:40:04 38° WSW 15:42:26 21° NW
CZ-4B R/B 3.8 15:39:27 10° S 15:42:59 38° WSW 15:43:42 34° W
Cosmos 405 Rocket 3.8 15:40:04 10° SSW 15:42:36 32° WSW 15:42:36 32° WSW
Cosmos 2333 Rocket 2.1 15:42:02 50° N 15:43:35 78° ENE 15:49:18 10° SSE
Iridium 4 Rocket 3.1 15:50:19 68° WNW 15:50:36 71° W 15:54:52 10° S
Cosmos 2219 Rocket 2.9 15:54:29 37° E 15:54:29 37° E 15:59:14 10° SE
Cosmos 2026 Rocket 4.1 15:48:24 10° S 15:54:32 61° E 15:55:53 50° NE
Cosmos 1428 Rocket 4.5 15:50:38 10° S 15:57:02 86° W 15:58:46 52° N
Cosmos 1464 Rocket 4.3 15:55:30 35° NNW 15:58:12 65° W 16:04:28 10° S
Helios 1B rocket 3.3 16:04:53 10° SSE 16:07:17 39° SSE 16:07:17 39° SSE
Cosmos 2360 Rocket 2.1 16:07:40 65° N 16:08:33 83° ENE 16:14:18 10° SSE
NOSS 3-1 (A) 4.5 15:59:02 10° NW 16:08:41 75° SW 16:16:59 10° SE
Okean O Rocket 4.1 16:06:03 10° SSW 16:09:06 18° WSW 16:12:07 10° WNW
SPOT 3 Rocket 4.1 16:05:07 10° S 16:10:13 53° WSW 16:11:55 37° WNW
COSMOS 2428 4.5 16:14:59 18° E 16:14:59 18° E 16:17:52 10° ESE
SL-4 R/B 3.6 16:13:18 10° SW 16:16:04 24° S 16:16:04 24° S
Lacrosse 4 Rocket 4.1 16:15:19 10° SSE 16:16:55 12° SE 16:18:31 10° ESE
Cosmos 1844 Rocket 3.0 16:12:33 10° SW 16:17:59 51° WNW 16:18:32 49° NW
Cosmos 1844 3.9 16:12:54 10° SSW 16:18:36 56° WNW 16:19:16 53° NW
Cosmos 1048 Rocket 4.5 16:16:07 10° S 16:21:11 48° ESE 16:21:40 47° E
SL-16 R/B 3.2 16:17:57 20° WNW 16:21:31 43° WSW 16:26:58 10° SSE
CZ-2C R/B 2.8 16:29:21 87° NE 16:29:26 88° ESE 16:34:25 10° SSW
Cosmos 2279 Rocket 4.0 16:32:25 58° NE 16:33:08 62° E 16:39:20 10° SSE
Cosmos 1626 Rocket 4.1 16:30:13 10° SSW 16:34:04 54° WSW 16:34:04 54° WSW
Cosmos 1758 Rocket 4.0 16:31:12 10° SSW 16:35:01 58° SW 16:35:01 58° SW
USA 229 DEB 4.5 16:38:58 42° NE 16:39:31 42° ENE 16:46:34 10° SE
USA 229 4.5 16:39:05 41° NE 16:39:36 42° ENE 16:46:39 10° SE
ALOS 2 4.5 16:39:08 10° SE 16:41:37 21° ESE 16:41:37 21° ESE
Cosmos 1606 Rocket 4.4 16:44:33 44° SE 16:44:33 44° SE 16:47:59 10° SSE
Cosmos 2322 4.3 16:52:42 43° E 16:52:42 43° E 16:57:41 10° SE
Cosmos 1943 Rocket 3.8 16:51:14 10° S 16:56:02 27° SE 16:58:30 20° E
Cosmos 2180 Rocket 4.4 16:56:21 63° NE 16:56:57 67° E 17:03:07 10° SSE
SL-12 R/B(2) 4.3 16:48:19 10° SW 16:56:58 67° SE 17:00:17 36° ENE
Meteor 1-5 Rocket 4.2 16:55:11 10° S 17:00:31 61° ESE 17:00:40 61° E
Cosmos 2237 Rocket 3.9 17:03:32 19° E 17:03:32 19° E 17:07:00 10° SE
Cosmos 2322 Rocket 3.5 17:03:03 23° W 17:05:39 34° SW 17:10:50 10° S
Cosmos 614 Rocket 4.2 17:02:09 10° SSW 17:07:19 58° ESE 17:07:29 57° ESE
USA 281 3.4 17:00:58 10° SSE 17:07:26 52° ENE 17:07:57 50° NE
Cosmos 1076 Rocket 4.4 17:03:13 10° S 17:06:44 46° SE 17:06:44 46° SE
Meteor 1-20 Rocket 4.4 17:02:35 10° SSW 17:08:06 58° W 17:08:13 58° W
Cosmos 2266 Rocket 4.1 17:03:11 10° S 17:09:31 63° ESE 17:10:28 56° ENE
Cosmos 2151 4.2 17:06:18 10° SSW 17:09:16 35° WSW 17:09:16 35° WSW
CENTAUR R/B 2.8 17:05:30 10° SSW 17:10:43 42° SE 17:11:46 37° ESE
Cosmos 2142 Rocket 4.4 17:11:00 69° N 17:11:52 89° WSW 17:18:23 10° S
ARIANE 5 R/B 3.2 17:09:56 10° SSE 17:13:22 51° SE 17:13:22 51° SE
Cosmos 468 4.4 17:16:08 10° SSW 17:21:18 84° SW 17:21:18 84° SW
Cosmos 2278 Rocket 3.4 17:17:14 10° SSW 17:22:32 37° SE 17:24:34 28° E
Cosmos 2333 Rocket 4.4 17:24:26 10° W 17:28:32 20° SW 17:32:41 10° S
USA 59 Rocket 4.0 17:22:07 10° WSW 17:30:15 27° SSW 17:38:25 10° SE
ATLAS 3B R/B 2.3 17:32:24 69° NNE 17:32:49 72° ENE 17:39:03 10° SE
Cosmos 2219 Rocket 3.4 17:36:08 28° W 17:37:59 35° SW 17:43:11 10° S
Spot 4 4.0 17:39:14 10° S 17:43:44 69° SW 17:43:44 69° SW
Cosmos 1125 Rocket 3.8 17:44:14 55° W 17:44:33 56° WSW 17:49:48 10° SSE
Cosmos 2221 4.2 17:47:17 24° ESE 17:47:17 24° ESE 17:50:18 10° SE
CZ-2C R/B 3.8 17:44:45 10° SSE 17:49:37 30° E 17:50:09 30° ENE
ACS3 Solar Sail 2.9 17:49:32 25° ENE 17:51:56 34° ESE 17:57:07 10° S
Cosmos 2360 Rocket 4.4 17:49:22 10° W 17:53:15 19° SW 17:57:16 10° S
Cosmos 1818 3.5 17:54:19 70° W 17:54:39 72° SW 18:00:06 10° SSE
Lacrosse 4 Rocket 2.2 17:51:15 10° SSW 17:54:26 49° SSW 17:54:26 49° SSW
IDEFIX/ARIANE 42P 2.4 17:56:59 86° NW 17:57:03 87° WNW 18:02:21 10° SSW
COSMOS 2428 2.8 17:56:56 62° WNW 17:57:36 67° WSW 18:03:22 10° SSE
Cosmos-2242 3.6 17:59:54 54° SSW 17:59:54 54° SSW 18:03:25 10° S
H-2A R/B 4.4 17:58:15 10° E 18:01:24 17° ESE 18:04:31 10° SSE
Meteor 2-20 4.3 18:03:17 68° NNW 18:04:09 87° WSW 18:10:27 10° S
MSX 3.7 18:04:08 71° NW 18:04:33 75° WNW 18:10:23 10° SSW
Meteor 2-2 Rocket 4.2 18:05:28 71° NW 18:06:02 78° W 18:11:51 10° S
Cosmos 1536 3.7 18:07:05 10° S 18:09:54 44° SSE 18:09:54 44° SSE
Timation 2 Rocket 4.1 18:06:10 10° SSW 18:13:06 88° WNW 18:15:03 52° NNE
IRIDIUM 106 4.4 18:07:54 10° S 18:13:12 68° E 18:13:41 64° ENE
ATLAS 5 CENTAUR R/B 3.6 18:13:28 31° NE 18:14:39 33° ENE 18:20:45 10° SE
Cosmos 1437 Rocket 3.9 18:16:23 38° SSE 18:16:23 38° SSE 18:18:43 10° SSE
Meteor 2-6 Rocket 4.1 18:15:17 69° NE 18:15:48 75° E 18:21:26 10° SSE
Cosmos 1812 Rocket 4.2 18:18:41 48° E 18:18:41 48° E 18:22:40 10° SSE
ALOS 2 3.7 18:15:05 10° S 18:19:00 35° WSW 18:19:00 35° WSW
ADEOS Rocket 3.7 18:18:22 28° ENE 18:20:56 45° ESE 18:26:39 10° S
Cosmos 2058 Rocket 4.0 18:21:58 40° WSW 18:21:58 40° WSW 18:25:55 10° S
Resurs 1-4 Rocket 2.7 18:20:22 39° ENE 18:21:55 53° ESE 18:27:08 10° S
ISS -1.1 18:24:38 17° ESE 18:24:38 17° ESE 18:25:34 10° ESE
Cosmos 1553 Rocket 4.2 18:21:31 48° NE 18:22:55 60° E 18:29:00 10° SSE
CZ-2D R/B 2.6 18:28:09 39° NE 18:29:51 56° ESE 18:35:06 10° S
USA 229 DEB 4.4 18:26:20 29° WNW 18:30:25 55° SW 18:37:39 10° SSE
USA 229 4.4 18:26:27 30° WNW 18:30:31 55° SW 18:37:44 10° SSE
NOSS 0 Rocket 4.2 18:29:26 48° WNW 18:30:56 61° WSW 18:37:06 10° SSE
Cosmos 972 Rocket 4.3 18:30:59 62° N 18:32:07 86° ENE 18:38:46 10° SSE
Cosmos 1707 4.2 18:33:38 29° SSE 18:33:38 29° SSE 18:35:20 10° S
ASTEX 1 3.7 18:28:52 10° S 18:33:43 54° W 18:33:49 54° W
Cosmos 1238 Rocket 4.2 18:34:08 32° E 18:34:23 32° E 18:38:02 10° SSE
Cosmos 1470 3.9 18:33:29 10° S 18:36:20 34° ESE 18:36:20 34° ESE
Cosmos 1980 3.7 18:38:04 57° WNW 18:39:02 69° WSW 18:44:45 10° SSE
Cosmos 1943 Rocket 2.4 18:34:34 10° SW 18:39:57 51° WNW 18:39:57 51° WNW
Cosmos 1655 Rocket 4.3 18:37:45 10° SSW 18:43:52 49° W 18:44:51 45° WNW
Cosmos 2237 Rocket 2.4 18:45:19 53° WNW 18:46:29 65° WSW 18:52:13 10° SSE
Cosmos 921 Rocket 3.3 18:42:42 10° SSW 18:47:13 66° ESE 18:47:47 59° ENE
FENGYUN 3A 4.0 18:47:18 45° WNW 18:47:22 46° W 18:52:37 10° SSW
USA 281 4.3 18:45:47 10° S 18:51:41 35° SW 18:54:48 23° W
H-2A R/B (2) 4.2 18:52:08 29° NNE 18:53:59 31° NE 19:20:19 10° E
Alouette 2 Rocket 3.4 18:53:08 10° SSW 18:56:34 68° S 18:56:34 68° S
SL-16 R/B 2.8 18:56:54 37° NNE 18:58:27 47° ENE 19:03:56 10° SE
ALOS 2.2 18:58:06 60° NE 18:58:55 79° ESE 19:03:34 10° S
NOAA 11 4.2 18:59:46 55° NW 19:00:37 62° WNW 19:06:08 10° SSW
CENTAUR R/B 3.5 18:56:37 10° WSW 18:58:48 20° WSW 18:58:48 20° WSW
Meteor 1-11 Rocket 3.9 18:55:06 10° S 19:01:11 81° E 19:03:38 38° NNE
ADEOS II 2.1 19:01:23 42° NNE 19:03:14 79° ESE 19:08:34 10° SSW
NOSS 3-2 (A) 3.1 18:57:00 10° SW 19:03:22 74° WNW 19:05:00 46° NNE
Cosmos 2278 Rocket 2.9 19:01:23 10° SW 19:06:20 36° W 19:06:20 36° W
H-2A R/B 2.7 19:10:53 32° NE 19:12:34 54° ESE 19:16:49 10° S
Cosmos 1386 Rocket 4.3 19:07:13 10° S 19:13:20 82° W 19:15:39 40° N
USA 267 3.3 19:08:24 10° SE 19:15:02 70° NE 19:17:40 39° NNW
Cosmos 1140 Rocket 3.3 19:11:00 10° SSW 19:16:12 75° WNW 19:17:35 49° N
Meteor 1-10 Rocket 4.2 19:15:18 48° NW 19:16:48 69° WSW 19:22:28 10° S
Cosmos 1023 Rocket 4.4 19:14:40 10° SSW 19:19:47 64° WNW 19:20:50 51° NNW
Cosmos 1842 4.2 19:23:27 29° SW 19:23:27 29° SW 19:25:51 10° S
USA 59 Rocket 4.0 19:14:58 10° SW 19:23:18 27° SSE 19:30:55 10° ESE
Cosmos 2221 3.7 19:23:37 29° WSW 19:23:43 29° WSW 19:27:29 10° SSW
ATLAS 3B R/B 4.0 19:19:37 14° W 19:23:58 28° SW 19:29:16 10° SSE
Meteor 1-27 Rocket 3.7 19:26:02 40° NNW 19:28:17 85° W 19:34:17 10° S
Cosmos 1766 Rocket 3.5 19:24:05 10° S 19:28:38 87° W 19:29:53 48° N
Envisat 3.3 19:28:14 43° NW 19:29:01 47° W 19:34:00 10° SSW
CZ-2C R/B 3.5 19:24:44 10° S 19:29:54 39° WSW 19:31:35 31° WNW
Meteor 2-4 Rocket 3.9 19:28:05 32° N 19:30:45 70° E 19:36:20 10° SSE
Cosmos 1975 3.6 19:28:38 10° SSW 19:31:23 33° WSW 19:31:23 33° WSW
CZ-2C R/B 4.2 19:28:58 10° NE 19:33:13 30° ESE 19:37:38 10° S
ACS3 Solar Sail 2.2 19:33:22 34° WNW 19:34:31 37° W 19:39:54 10° SSW
METEOR-M 4.0 19:34:57 29° N 19:37:48 82° WNW 19:43:15 10° SSW
H-2A R/B 1.9 19:38:01 35° N 19:40:08 70° WNW 19:45:13 10° SSW
NOSS 3-2 (C) 3.2 19:36:12 10° SW 19:42:41 88° SE 19:47:56 10° NE
Sich 1 3.8 19:42:13 10° S 19:46:29 50° ESE 19:50:02 14° NNE
USA 234 3.8 19:44:36 10° ENE 19:51:05 63° SSE 19:57:35 10° SW
H-2A R/B 4.0 19:51:41 10° SE 19:55:00 27° E 19:57:38 13° NNE
Cosmos 1842 Rocket 3.5 19:54:52 38° NNW 19:56:28 70° W 20:00:53 10° S
ATLAS 5 CENTAUR R/B 2.9 19:52:49 27° WNW 19:56:57 64° SW 20:03:48 10° SSE
Cosmos 1656 Rocket 3.9 19:53:39 10° SW 19:59:03 49° WNW 20:02:14 24° N
ISS -2.5 19:57:38 25° WSW 19:59:10 39° SSW 20:02:29 10° SE
Resurs 1-4 Rocket 3.4 20:01:24 21° WNW 20:01:58 22° W 20:06:03 10° SW
ARGOS 3.2 19:56:57 10° NNE 20:02:19 86° ESE 20:07:50 10° SSW
Cosmos 2369 Rocket 2.2 19:56:52 10° SSW 20:02:34 89° ESE 20:08:14 10° NNE
ADEOS Rocket 3.8 20:05:18 24° WNW 20:06:43 27° W 20:11:40 10° SW
SJ 16-02 1.7 20:02:25 10° SSW 20:06:45 62° ESE 20:11:00 10° NNE
Okean 3 Rocket 3.5 20:03:34 10° S 20:08:02 85° W 20:11:11 19° N
Cosmos 1943 3.5 20:05:07 21° N 20:08:54 63° ENE 20:14:31 10° SSE
CZ-2D R/B 3.5 20:09:25 20° WNW 20:10:09 20° W 20:14:05 10° SW
Cosmos 1238 Rocket 4.4 20:09:38 21° W 20:10:31 22° WSW 20:13:44 10° SSW
Cosmos 2315 Rocket 4.3 20:09:28 24° NNW 20:13:12 55° WSW 20:19:31 10° S
USA 276 3.8 20:13:11 15° SW 20:14:31 21° SSW 20:16:25 10° SE
Cosmos 1709 Rocket 4.4 20:15:37 10° SSW 20:21:26 42° W 20:25:19 20° NNW
Cosmos 1271 Rocket 2.6 20:22:00 31° NW 20:23:18 52° WSW 20:26:44 10° S
Cosmos 407 Rocket 4.0 20:19:12 10° SW 20:23:56 37° WNW 20:27:03 19° NNW
Cosmos 371 Rocket 3.2 20:21:04 10° SSW 20:25:59 77° WNW 20:30:50 10° NNE
Meteor 1-18 Rocket 4.3 20:24:58 19° NNW 20:29:16 67° WSW 20:34:59 10° S
Cosmos 304 Rocket 3.7 20:24:43 10° SSW 20:29:30 66° WNW 20:34:14 10° N
Cosmos 2237 Rocket 4.4 20:28:57 10° WSW 20:31:42 13° SW 20:34:28 10° SSW
SL-08 RB Rocket 3.7 20:27:14 10° NNE 20:31:51 84° WNW 20:36:30 10° SSW
Cosmos 1420 Rocket 4.4 20:29:36 21° NW 20:32:59 51° WSW 20:38:12 10° SSE
RESURS DK-1 4.1 20:30:20 10° NNE 20:33:43 27° ENE 20:37:07 10° SE
Cosmos 2297 3.8 20:28:54 10° SSW 20:34:31 55° WNW 20:40:03 10° N
ALOS 4.3 20:36:09 11° W 20:36:25 11° W 20:37:47 10° WSW
DELTA 2 R/B (1) 4.1 20:37:38 18° NW 20:41:24 44° NNE 20:46:42 10° E
SL-16 R/B 3.4 20:38:46 14° WNW 20:42:45 30° SW 20:47:46 10° S
ADEOS II 3.8 20:42:12 13° WNW 20:43:23 14° W 20:46:04 10° WSW
Cosmos 2263 4.3 20:38:44 10° SSW 20:44:24 58° WNW 20:50:02 10° N
Cosmos 1743 Rocket 3.7 20:40:41 10° S 20:45:13 85° E 20:49:42 10° N
PAYLOAD A 4.1 20:40:06 10° N 20:45:32 73° WNW 20:51:02 10° SSW
H-2A R/B 3.8 20:47:17 14° WNW 20:48:12 15° W 20:50:40 10° SW
H-2A R/B 3.6 20:47:49 10° NNE 20:51:39 68° ESE 20:55:31 10° S
USA 238 DEB 3.6 20:48:54 10° SW 20:55:36 84° SE 21:01:40 10° NE
USA 238 3.6 20:49:01 10° SW 20:55:43 83° SE 21:01:47 10° NE
Cosmos 2154 Rocket 4.1 20:50:40 10° S 20:57:08 80° W 21:03:29 10° N
USA 267 4.1 20:51:34 10° SE 20:57:49 46° SSW 21:04:02 10° W
Cosmos 2056 Rocket 4.0 20:56:54 13° NW 21:01:35 50° WSW 21:06:56 10° SSE
Cosmos 1954 Rocket 4.3 20:59:21 10° SSW 21:04:22 45° WNW 21:09:18 10° N
Cosmos 1805 Rocket 4.3 21:02:17 10° SSW 21:06:23 36° W 21:10:28 10° NNW
Nadezhda 1 Rocket 4.1 21:02:48 10° N 21:09:14 84° W 21:15:43 10° S
Meteor 2-10 Rocket 4.3 21:06:26 10° SSW 21:10:52 31° W 21:15:14 10° NNW
CZ-2C R/B 3.1 21:06:43 10° NNW 21:11:08 34° W 21:15:45 10° SSW
Cosmos 1151 Rocket 4.0 21:07:58 11° NW 21:11:39 31° WSW 21:15:32 10° SSW
Cosmos 1500 Rocket 4.4 21:07:46 10° SSW 21:11:39 32° W 21:15:30 10° NNW
Iridium 82 4.4 21:08:37 10° NNW 21:11:41 53° W 21:14:54 10° S
Cosmos 2251 Rocket 4.5 21:08:35 10° SW 21:13:09 29° W 21:17:41 10° NNW
Cosmos 1331 Rocket 4.2 21:08:27 10° NNW 21:13:45 80° ENE 21:19:06 10° SSE
TSX-5 4.4 21:12:06 11° WNW 21:14:44 29° SW 21:17:34 10° S
USA 59 Rocket 3.0 21:05:33 10° SW 21:15:20 50° SE 21:23:19 10° ENE
SJ-11-01 4.3 21:12:15 10° N 21:16:55 64° W 21:21:39 10° SSW
Cosmos 332 Rocket 3.8 21:12:29 10° SSW 21:17:23 89° ESE 21:22:12 10° NNE
Cosmos 1758 4.1 21:21:03 10° SSW 21:24:25 29° W 21:27:43 10° NNW
H-2A R/B 3.7 21:25:53 10° SSW 21:28:54 22° WSW 21:31:51 10° WNW
SL-16 R/B 3.6 21:27:02 10° SSE 21:33:10 49° E 21:39:12 10° N
